Location: Roussillon
(43.9008°N, 5.2947°E)
Time: 01:50:40
(UTC+00:00)

Cosmos 2058 - Pass Details

Date: 07 June 2020
Orbit: 561 x 585 km, 82.5° (Epoch: 11 July)

Event Time Altitude Azimuth Distance (km) Brightness Sun altitude
Exits shadow 02:26:57 20° 225° (SW) 1,368 4.2 -12.9°
Maximum altitude 02:29:24 39° 283° (WNW) 885 3.6 -12.6°
Drops below altitude 10° 02:33:23 10° 353° (N) 1,916 6.2 -12.1°
Sets 02:35:42 0° 2° (N) 2,821 7.3 -11.8°
